Time,TemperatureF,DewpointF,PressureIn,WindDirection,WindDirectionDegrees,WindSpeedMPH,WindSpeedGustMPH,Humidity,HourlyPrecipIn,Conditions,Clouds,dailyrainin,SoftwareType,DateUTC
2013-08-29 00:01:00,66.9,44.3,29.90,SW,235,13.2,13.2,44,0.00,CLR,SCT,0.00,WeatherDisplay:10.37,2013-08-29 07:01:00,
2013-08-29 00:06:00,66.7,44.7,29.90,SW,235,12.7,12.7,45,0.00,CLR,SCT,0.00,WeatherDisplay:10.37,2013-08-29 07:06:00,
2013-08-29 00:11:00,66.7,44.7,29.90,SW,235,12.7,12.7,45,0.00,CLR,SCT,0.00,WeatherDisplay:10.37,2013-08-29 07:11:00,
2013-08-29 00:16:00,66.6,44.5,29.90,SW,235,12.7,12.7,45,0.00,CLR,SCT,0.00,WeatherDisplay:10.37,2013-08-29 07:16:00,
2013-08-29 00:21:00,66.2,44.8,29.90,SW,235,12.7,12.7,46,0.00,CLR,SCT,0.00,WeatherDisplay:10.37,2013-08-29 07:21:00,
2013-08-29 00:26:00,66.0,45.2,29.90,SW,235,13.2,13.2,47,0.00,CLR,SCT,0.00,WeatherDisplay:10.37,2013-08-29 07:26:00,
2013-08-29 00:31:00,66.0,45.2,29.90,SW,235,13.2,13.2,47,0.00,CLR,SCT,0.00,WeatherDisplay:10.37,2013-08-29 07:31:00,
2013-08-29 00:36:00,65.7,44.9,29.90,SW,235,13.2,13.2,47,0.00,CLR,SCT,0.00,WeatherDisplay:10.37,2013-08-29 07:36:00,
2013-08-29 00:42:00,65.5,45.3,29.90,SW,235,12.7,12.7,48,0.00,CLR,SCT,0.00,WeatherDisplay:10.37,2013-08-29 07:42:00,
2013-08-29 00:47:00,65.5,45.3,29.90,SW,235,12.7,12.7,48,0.00,CLR,SCT,0.00,WeatherDisplay:10.37,2013-08-29 07:47:00,
2013-08-29 00:52:00,65.3,45.1,29.90,SW,235,13.2,13.2,48,0.00,CLR,SCT,0.00,WeatherDisplay:10.37,2013-08-29 07:52:00,
2013-08-29 00:57:00,65.1,45.5,29.90,SW,235,12.7,12.7,49,0.00,CLR,SCT,0.00,WeatherDisplay:10.37,2013-08-29 07:57:00,
2013-08-29 01:02:00,65.1,45.5,29.90,SW,235,12.7,12.7,49,0.00,CLR,SCT,0.00,WeatherDisplay:10.37,2013-08-29 08:02:00,
2013-08-29 01:07:00,64.9,45.3,29.90,SW,235,12.7,12.7,49,0.00,CLR,SCT,0.00,WeatherDisplay:10.37,2013-08-29 08:07:00,
2013-08-29 01:12:00,64.8,45.1,29.90,SW,235,12.7,12.7,49,0.00,CLR,SCT,0.00,WeatherDisplay:10.37,2013-08-29 08:12:00,
2013-08-29 01:17:00,64.4,44.8,29.90,SW,235,13.2,13.2,49,0.00,CLR,SCT,0.00,WeatherDisplay:10.37,2013-08-29 08:17:00,
2013-08-29 01:22:00,64.4,44.8,29.90,SW,235,12.7,12.7,49,0.00,CLR,SCT,0.00,WeatherDisplay:10.37,2013-08-29 08:22:00,
2013-08-29 01:27:00,64.0,45.0,29.90,SW,235,12.7,12.7,50,0.00,CLR,SCT,0.00,WeatherDisplay:10.37,2013-08-29 08:27:00,
2013-08-29 01:32:00,63.9,45.4,29.90,SW,235,12.7,12.7,51,0.00,CLR,SCT,0.00,WeatherDisplay:10.37,2013-08-29 08:32:00,
2013-08-29 01:37:00,63.5,45.6,29.90,SW,235,13.2,13.2,52,0.00,CLR,SCT,0.00,WeatherDisplay:10.37,2013-08-29 08:37:00,
2013-08-29 01:42:00,63.5,46.1,29.90,SW,235,13.2,13.2,53,0.00,CLR,SCT,0.00,WeatherDisplay:10.37,2013-08-29 08:42:00,
2013-08-29 01:47:00,63.1,45.7,29.90,SW,235,13.2,13.2,53,0.00,CLR,SCT,0.00,WeatherDisplay:10.37,2013-08-29 08:47:00,
2013-08-29 01:52:00,63.0,46.0,29.90,SW,235,13.2,13.2,54,0.00,CLR,SCT,0.00,WeatherDisplay:10.37,2013-08-29 08:52:00,
2013-08-29 01:57:00,63.0,46.5,29.90,SW,235,12.7,12.7,55,0.00,CLR,SCT,0.00,WeatherDisplay:10.37,2013-08-29 08:57:00,
2013-08-29 02:02:00,62.8,46.8,29.90,SW,235,12.7,12.7,56,0.00,CLR,SCT,0.00,WeatherDisplay:10.37,2013-08-29 09:02:00,
2013-08-29 02:07:00,62.6,46.7,29.90,SW,235,13.2,13.2,56,0.00,CLR,SCT,0.00,WeatherDisplay:10.37,2013-08-29 09:07:00,
2013-08-29 02:12:00,62.6,46.7,29.90,SW,235,12.7,12.7,56,0.00,CLR,SCT,0.00,WeatherDisplay:10.37,2013-08-29 09:12:00,
2013-08-29 02:17:00,62.6,46.7,29.90,SW,235,12.7,12.7,56,0.00,CLR,SCT,0.00,WeatherDisplay:10.37,2013-08-29 09:17:00,
2013-08-29 02:22:00,62.4,46.5,29.90,SW,235,12.7,12.7,56,0.00,CLR,SCT,0.00,WeatherDisplay:10.37,2013-08-29 09:22:00,
2013-08-29 02:27:00,62.2,46.3,29.90,SW,235,13.2,13.2,56,0.00,CLR,SCT,0.00,WeatherDisplay:10.37,2013-08-29 09:27:00,
2013-08-29 02:32:00,62.1,46.6,29.90,SW,235,13.2,13.2,57,0.00,CLR,SCT,0.00,WeatherDisplay:10.37,2013-08-29 09:32:00,
2013-08-29 02:37:00,61.9,46.5,29.90,SW,235,12.7,12.7,57,0.00,CLR,SCT,0.00,WeatherDisplay:10.37,2013-08-29 09:37:00,
2013-08-29 02:42:00,61.9,46.9,29.90,SW,235,12.7,12.7,58,0.00,CLR,SCT,0.00,WeatherDisplay:10.37,2013-08-29 09:42:00,
2013-08-29 02:47:00,61.9,46.9,29.90,SW,235,12.7,12.7,58,0.00,CLR,SCT,0.00,WeatherDisplay:10.37,2013-08-29 09:47:00,
2013-08-29 02:52:00,61.9,47.4,29.90,SW,235,12.7,12.7,59,0.00,CLR,SCT,0.00,WeatherDisplay:10.37,2013-08-29 09:52:00,
2013-08-29 02:57:00,61.9,46.9,29.90,SW,235,12.7,12.7,58,0.00,CLR,SCT,0.00,WeatherDisplay:10.37,2013-08-29 09:57:00,
2013-08-29 03:02:00,61.7,46.8,29.90,SW,235,12.7,12.7,58,0.00,CLR,SCT,0.00,WeatherDisplay:10.37,2013-08-29 10:02:00,
2013-08-29 03:07:00,61.7,47.2,29.90,SW,235,12.7,12.7,59,0.00,CLR,SCT,0.00,WeatherDisplay:10.37,2013-08-29 10:07:00,
2013-08-29 03:12:00,61.7,47.2,29.90,SW,235,12.7,12.7,59,0.00,CLR,SCT,0.00,WeatherDisplay:10.37,2013-08-29 10:12:00,
2013-08-29 03:17:00,61.5,47.1,29.90,SW,235,13.2,13.2,59,0.00,CLR,SCT,0.00,WeatherDisplay:10.37,2013-08-29 10:17:00,
2013-08-29 03:22:00,61.3,46.9,29.90,SW,235,12.7,12.7,59,0.00,CLR,SCT,0.00,WeatherDisplay:10.37,2013-08-29 10:22:00,
2013-08-29 03:27:00,61.3,47.3,29.90,SW,235,13.2,13.2,60,0.00,CLR,SCT,0.00,WeatherDisplay:10.37,2013-08-29 10:27:00,
2013-08-29 03:32:00,61.2,47.2,29.90,SW,235,13.2,13.2,60,0.00,CLR,SCT,0.00,WeatherDisplay:10.37,2013-08-29 10:32:00,
2013-08-29 03:45:00,61.0,47.9,29.90,SW,235,12.7,12.7,62,0.00,CLR,SCT,0.00,WeatherDisplay:10.37,2013-08-29 10:45:00,
2013-08-29 03:50:00,60.6,48.8,29.90,SW,235,12.7,12.7,65,0.00,CLR,SCT,0.00,WeatherDisplay:10.37,2013-08-29 10:50:00,
2013-08-29 03:55:00,60.4,48.6,29.90,SW,235,12.7,12.7,65,0.00,CLR,SCT,0.00,WeatherDisplay:10.37,2013-08-29 10:55:00,
2013-08-29 04:00:00,60.3,48.9,29.90,SW,235,12.7,12.7,66,0.00,CLR,SCT,0.00,WeatherDisplay:10.37,2013-08-29 11:00:00,
2013-08-29 04:05:00,60.3,48.4,29.90,SW,235,12.7,12.7,65,0.00,CLR,SCT,0.00,WeatherDisplay:10.37,2013-08-29 11:05:00,
2013-08-29 04:10:00,60.3,48.4,29.90,SW,235,12.7,12.7,65,0.00,CLR,SCT,0.00,WeatherDisplay:10.37,2013-08-29 11:10:00,
2013-08-29 04:15:00,60.3,48.0,29.90,SW,235,12.7,12.7,64,0.00,CLR,SCT,0.00,WeatherDisplay:10.37,2013-08-29 11:15:00,
2013-08-29 04:20:00,60.4,47.8,29.90,SW,235,12.7,12.7,63,0.00,CLR,SCT,0.00,WeatherDisplay:10.37,2013-08-29 11:20:00,
2013-08-29 04:25:00,60.4,48.2,29.90,SW,235,13.2,13.2,64,0.00,CLR,SCT,0.00,WeatherDisplay:10.37,2013-08-29 11:25:00,
2013-08-29 04:30:00,60.3,47.6,29.90,SW,235,12.7,12.7,63,0.00,CLR,SCT,0.00,WeatherDisplay:10.37,2013-08-29 11:30:00,
2013-08-29 04:35:00,60.1,47.4,29.90,SW,235,12.7,12.7,63,0.00,CLR,SCT,0.00,WeatherDisplay:10.37,2013-08-29 11:35:00,
2013-08-29 04:40:00,60.1,47.9,29.90,SW,235,12.7,12.7,64,0.00,CLR,SCT,0.00,WeatherDisplay:10.37,2013-08-29 11:40:00,
2013-08-29 04:45:00,60.1,47.9,29.90,SW,235,12.7,12.7,64,0.00,CLR,SCT,0.00,WeatherDisplay:10.37,2013-08-29 11:45:00,
2013-08-29 04:50:00,59.9,48.1,29.90,SW,235,12.7,12.7,65,0.00,CLR,SCT,0.00,WeatherDisplay:10.37,2013-08-29 11:50:00,
2013-08-29 04:55:00,59.9,47.7,29.90,SW,235,13.2,13.2,64,0.00,CLR,SCT,0.00,WeatherDisplay:10.37,2013-08-29 11:55:00,
2013-08-29 05:00:00,59.7,47.5,29.90,SW,235,12.7,12.7,64,0.00,CLR,SCT,0.00,WeatherDisplay:10.37,2013-08-29 12:00:00,
2013-08-29 05:05:00,59.7,47.5,29.90,SW,235,12.7,12.7,64,0.00,CLR,SCT,0.00,WeatherDisplay:10.37,2013-08-29 12:05:00,
2013-08-29 05:10:00,59.7,47.5,29.90,SW,235,12.7,12.7,64,0.00,CLR,SCT,0.00,WeatherDisplay:10.37,2013-08-29 12:10:00,
2013-08-29 05:15:00,59.5,47.3,29.90,SW,235,12.7,12.7,64,0.00,CLR,SCT,0.00,WeatherDisplay:10.37,2013-08-29 12:15:00,
2013-08-29 05:20:00,59.5,47.8,29.90,SW,235,12.7,12.7,65,0.00,CLR,SCT,0.00,WeatherDisplay:10.37,2013-08-29 12:20:00,
2013-08-29 05:25:00,59.5,47.8,29.90,SW,235,13.2,13.2,65,0.00,CLR,SCT,0.00,WeatherDisplay:10.37,2013-08-29 12:25:00,
2013-08-29 05:30:00,59.4,48.0,29.90,SW,235,12.7,12.7,66,0.00,CLR,SCT,0.00,WeatherDisplay:10.37,2013-08-29 12:30:00,
2013-08-29 05:35:00,59.4,48.0,29.90,SW,235,12.7,12.7,66,0.00,CLR,SCT,0.00,WeatherDisplay:10.37,2013-08-29 12:35:00,
2013-08-29 05:40:00,59.4,48.0,29.90,SW,235,12.7,12.7,66,0.00,CLR,SCT,0.00,WeatherDisplay:10.37,2013-08-29 12:40:00,
2013-08-29 05:45:00,59.4,48.0,29.90,SW,235,12.7,12.7,66,0.00,CLR,SCT,0.00,WeatherDisplay:10.37,2013-08-29 12:45:00,
2013-08-29 05:50:00,59.2,47.8,29.90,SW,235,12.7,12.7,66,0.00,CLR,SCT,0.00,WeatherDisplay:10.37,2013-08-29 12:50:00,
2013-08-29 05:55:00,59.0,47.7,29.90,SW,235,12.7,12.7,66,0.00,CLR,SCT,0.00,WeatherDisplay:10.37,2013-08-29 12:55:00,
2013-08-29 06:00:00,58.6,48.5,29.90,SW,235,12.7,12.7,69,0.00,CLR,SCT,0.00,WeatherDisplay:10.37,2013-08-29 13:00:00,
2013-08-29 06:05:00,58.5,49.1,29.90,SW,235,12.7,12.7,71,0.00,CLR,SCT,0.00,WeatherDisplay:10.37,2013-08-29 13:05:00,
2013-08-29 06:10:00,58.5,49.1,29.90,SW,235,12.7,12.7,71,0.00,CLR,SCT,0.00,WeatherDisplay:10.37,2013-08-29 13:10:00,
2013-08-29 06:15:00,58.5,48.7,29.90,SW,235,12.7,12.7,70,0.00,CLR,SCT,0.00,WeatherDisplay:10.37,2013-08-29 13:15:00,
2013-08-29 06:20:00,58.3,48.5,29.90,SW,235,13.2,13.2,70,0.00,CLR,SCT,0.00,WeatherDisplay:10.37,2013-08-29 13:20:00,
2013-08-29 06:25:00,58.3,48.5,29.90,SW,235,12.7,12.7,70,0.00,CLR,SCT,0.00,WeatherDisplay:10.37,2013-08-29 13:25:00,
2013-08-29 06:30:00,58.1,48.4,29.90,SW,235,12.7,12.7,70,0.00,CLR,SCT,0.00,WeatherDisplay:10.37,2013-08-29 13:30:00,
2013-08-29 06:35:00,58.1,48.7,29.90,SW,235,13.2,13.2,71,0.00,CLR,SCT,0.00,WeatherDisplay:10.37,2013-08-29 13:35:00,
2013-08-29 06:40:00,58.1,48.7,29.93,SW,235,12.7,12.7,71,0.00,CLR,SCT,0.00,WeatherDisplay:10.37,2013-08-29 13:40:00,
2013-08-29 06:45:00,58.1,48.7,29.93,SW,235,13.2,13.2,71,0.00,CLR,SCT,0.00,WeatherDisplay:10.37,2013-08-29 13:45:00,
2013-08-29 06:50:00,58.5,49.1,29.93,SW,235,12.7,12.7,71,0.00,CLR,SCT,0.00,WeatherDisplay:10.37,2013-08-29 13:50:00,
2013-08-29 06:55:00,58.8,49.8,29.93,SW,235,12.7,12.7,72,0.00,CLR,SCT,0.00,WeatherDisplay:10.37,2013-08-29 13:55:00,
2013-08-29 07:00:00,59.2,49.8,29.93,SW,235,13.2,13.2,71,0.00,CLR,SCT,0.00,WeatherDisplay:10.37,2013-08-29 14:00:00,
2013-08-29 07:05:00,59.7,49.9,29.93,SW,235,12.7,12.7,70,0.00,CLR,SCT,0.00,WeatherDisplay:10.37,2013-08-29 14:05:00,
2013-08-29 07:11:00,59.9,50.1,29.93,SW,235,12.7,12.7,70,0.00,CLR,SCT,0.00,WeatherDisplay:10.37,2013-08-29 14:11:00,
2013-08-29 07:16:00,60.4,49.8,29.93,SW,235,12.7,12.7,68,0.00,CLR,SCT,0.00,WeatherDisplay:10.37,2013-08-29 14:16:00,
2013-08-29 07:21:00,60.8,49.0,29.93,SW,235,12.7,12.7,65,0.00,CLR,SCT,0.00,WeatherDisplay:10.37,2013-08-29 14:21:00,
2013-08-29 07:26:00,61.3,48.6,29.93,SW,235,12.7,12.7,63,0.00,CLR,SCT,0.00,WeatherDisplay:10.37,2013-08-29 14:26:00,
2013-08-29 07:31:00,61.5,48.4,29.93,SW,235,12.7,12.7,62,0.00,CLR,SCT,0.00,WeatherDisplay:10.37,2013-08-29 14:31:00,
2013-08-29 07:36:00,61.5,47.9,29.93,SW,235,12.7,12.7,61,0.00,CLR,SCT,0.00,WeatherDisplay:10.37,2013-08-29 14:36:00,
2013-08-29 07:41:00,61.7,48.1,29.93,SW,235,12.7,12.7,61,0.00,CLR,SCT,0.00,WeatherDisplay:10.37,2013-08-29 14:41:00,
2013-08-29 07:46:00,61.7,48.1,29.93,SW,235,12.7,12.7,61,0.00,CLR,SCT,0.00,WeatherDisplay:10.37,2013-08-29 14:46:00,
2013-08-29 07:51:00,61.9,47.4,29.93,SW,235,13.2,13.2,59,0.00,CLR,SCT,0.00,WeatherDisplay:10.37,2013-08-29 14:51:00,
2013-08-29 07:56:00,62.1,47.1,29.93,SW,235,12.7,12.7,58,0.00,CLR,SCT,0.00,WeatherDisplay:10.37,2013-08-29 14:56:00,
2013-08-29 08:01:00,62.2,47.7,29.93,SW,235,12.7,12.7,59,0.00,CLR,SCT,0.00,WeatherDisplay:10.37,2013-08-29 15:01:00,
2013-08-29 08:06:00,62.4,47.9,29.93,SW,235,12.7,12.7,59,0.00,CLR,SCT,0.00,WeatherDisplay:10.37,2013-08-29 15:06:00,
2013-08-29 08:11:00,62.6,47.1,29.93,SW,235,13.2,13.2,57,0.00,CLR,SCT,0.00,WeatherDisplay:10.37,2013-08-29 15:11:00,
2013-08-29 08:16:00,62.6,46.7,29.93,SW,235,13.2,13.2,56,0.00,CLR,SCT,0.00,WeatherDisplay:10.37,2013-08-29 15:16:00,
2013-08-29 08:21:00,63.0,47.0,29.93,SW,235,12.7,12.7,56,0.00,CLR,SCT,0.00,WeatherDisplay:10.37,2013-08-29 15:21:00,
2013-08-29 08:26:00,63.1,46.7,29.93,SW,235,13.2,13.2,55,0.00,CLR,SCT,0.00,WeatherDisplay:10.37,2013-08-29 15:26:00,
2013-08-29 08:31:00,63.5,47.0,29.93,SW,235,12.7,12.7,55,0.00,CLR,SCT,0.00,WeatherDisplay:10.37,2013-08-29 15:31:00,
2013-08-29 08:36:00,63.7,46.7,29.93,SW,235,12.7,12.7,54,0.00,CLR,SCT,0.00,WeatherDisplay:10.37,2013-08-29 15:36:00,
2013-08-29 08:41:00,64.0,47.1,29.96,SW,235,12.7,12.7,54,0.00,CLR,SCT,0.00,WeatherDisplay:10.37,2013-08-29 15:41:00,
2013-08-29 08:46:00,64.0,46.1,29.96,SW,235,12.7,12.7,52,0.00,CLR,SCT,0.00,WeatherDisplay:10.37,2013-08-29 15:46:00,
2013-08-29 08:51:00,64.2,45.7,29.96,SW,235,12.7,12.7,51,0.00,CLR,SCT,0.00,WeatherDisplay:10.37,2013-08-29 15:51:00,
2013-08-29 08:56:00,64.4,45.3,29.96,SW,235,12.7,12.7,50,0.00,CLR,SCT,0.00,WeatherDisplay:10.37,2013-08-29 15:56:00,
2013-08-29 09:01:00,64.6,45.0,29.96,SW,235,12.7,12.7,49,0.00,CLR,SCT,0.00,WeatherDisplay:10.37,2013-08-29 16:01:00,
2013-08-29 09:06:00,64.8,45.7,29.96,SW,235,12.7,12.7,50,0.00,CLR,SCT,0.00,WeatherDisplay:10.37,2013-08-29 16:06:00,
2013-08-29 09:11:00,64.9,45.3,29.96,SW,235,13.2,13.2,49,0.00,CLR,SCT,0.00,WeatherDisplay:10.37,2013-08-29 16:11:00,
2013-08-29 09:16:00,65.1,45.5,29.96,SW,235,12.7,12.7,49,0.00,CLR,SCT,0.00,WeatherDisplay:10.37,2013-08-29 16:16:00,
2013-08-29 09:21:00,65.1,44.9,29.96,SW,235,12.7,12.7,48,0.00,CLR,SCT,0.00,WeatherDisplay:10.37,2013-08-29 16:21:00,
2013-08-29 09:26:00,65.3,45.1,29.93,SW,235,12.7,12.7,48,0.00,CLR,SCT,0.00,WeatherDisplay:10.37,2013-08-29 16:26:00,
2013-08-29 09:31:00,65.5,44.7,29.93,SW,235,12.7,12.7,47,0.00,CLR,SCT,0.00,WeatherDisplay:10.37,2013-08-29 16:31:00,
2013-08-29 09:36:00,65.7,44.9,29.93,SW,235,12.7,12.7,47,0.00,CLR,SCT,0.00,WeatherDisplay:10.37,2013-08-29 16:36:00,
2013-08-29 09:41:00,65.7,46.0,29.96,SW,235,13.2,13.2,49,0.00,CLR,SCT,0.00,WeatherDisplay:10.37,2013-08-29 16:41:00,
2013-08-29 09:46:00,65.7,46.0,29.96,SW,235,12.7,12.7,49,0.00,CLR,SCT,0.00,WeatherDisplay:10.37,2013-08-29 16:46:00,
2013-08-29 09:51:00,65.5,47.4,29.96,SW,235,13.2,13.2,52,0.00,CLR,SCT,0.00,WeatherDisplay:10.37,2013-08-29 16:51:00,
2013-08-29 09:56:00,65.5,49.4,29.96,SW,235,12.7,12.7,56,0.00,CLR,SCT,0.00,WeatherDisplay:10.37,2013-08-29 16:56:00,
2013-08-29 10:01:00,65.5,47.9,29.96,SW,235,12.7,12.7,53,0.00,CLR,SCT,0.00,WeatherDisplay:10.37,2013-08-29 17:01:00,
2013-08-29 10:06:00,65.7,47.5,29.96,SW,235,12.7,12.7,52,0.00,CLR,SCT,0.00,WeatherDisplay:10.37,2013-08-29 17:06:00,
2013-08-29 10:11:00,66.2,45.9,29.96,SW,235,13.2,13.2,48,0.00,CLR,SCT,0.00,WeatherDisplay:10.37,2013-08-29 17:11:00,
2013-08-29 10:16:00,67.3,45.2,29.96,SW,235,12.7,12.7,45,0.00,CLR,SCT,0.00,WeatherDisplay:10.37,2013-08-29 17:16:00,
2013-08-29 10:21:00,68.4,45.0,29.96,SW,235,12.7,12.7,43,0.00,CLR,SCT,0.00,WeatherDisplay:10.37,2013-08-29 17:21:00,
2013-08-29 10:26:00,69.1,43.1,29.96,SW,235,13.2,13.2,39,0.00,CLR,SCT,0.00,WeatherDisplay:10.37,2013-08-29 17:26:00,
2013-08-29 10:31:00,70.2,45.4,29.96,SW,235,13.2,13.2,41,0.00,CLR,SCT,0.00,WeatherDisplay:10.37,2013-08-29 17:31:00,
2013-08-29 10:36:00,71.6,44.6,29.96,SW,235,12.7,12.7,38,0.00,CLR,SCT,0.00,WeatherDisplay:10.37,2013-08-29 17:36:00,
2013-08-29 10:41:00,72.7,43.4,29.96,SW,235,12.7,12.7,35,0.00,CLR,SCT,0.00,WeatherDisplay:10.37,2013-08-29 17:41:00,
2013-08-29 10:46:00,73.8,42.9,29.96,SW,235,12.7,12.7,33,0.00,CLR,SCT,0.00,WeatherDisplay:10.37,2013-08-29 17:46:00,
2013-08-29 10:51:00,74.7,42.8,29.96,SW,235,12.7,12.7,32,0.00,CLR,SCT,0.00,WeatherDisplay:10.37,2013-08-29 17:51:00,
2013-08-29 10:56:00,75.9,43.9,29.96,SW,235,12.7,12.7,32,0.00,CLR,SCT,0.00,WeatherDisplay:10.37,2013-08-29 17:56:00,
2013-08-29 11:01:00,77.0,44.0,29.96,SW,235,12.7,12.7,31,0.00,CLR,SCT,0.00,WeatherDisplay:10.37,2013-08-29 18:01:00,
2013-08-29 11:06:00,77.9,44.8,29.96,SW,235,13.2,13.2,31,0.00,CLR,SCT,0.00,WeatherDisplay:10.37,2013-08-29 18:06:00,
2013-08-29 11:11:00,79.2,45.9,29.96,SW,235,13.2,13.2,31,0.00,CLR,SCT,0.00,WeatherDisplay:10.37,2013-08-29 18:11:00,
2013-08-29 11:16:00,80.2,46.9,29.96,SW,235,12.7,12.7,31,0.00,CLR,SCT,0.00,WeatherDisplay:10.37,2013-08-29 18:16:00,
2013-08-29 11:21:00,80.8,46.4,29.96,SW,235,12.7,12.7,30,0.00,CLR,SCT,0.00,WeatherDisplay:10.37,2013-08-29 18:21:00,
2013-08-29 11:26:00,80.1,45.8,29.96,SW,235,12.7,12.7,30,0.00,CLR,SCT,0.00,WeatherDisplay:10.37,2013-08-29 18:26:00,
2013-08-29 11:31:00,79.9,45.7,29.96,SW,235,12.7,12.7,30,0.00,CLR,SCT,0.00,WeatherDisplay:10.37,2013-08-29 18:31:00,
2013-08-29 11:36:00,79.3,45.2,29.96,SW,235,12.7,12.7,30,0.00,CLR,SCT,0.00,WeatherDisplay:10.37,2013-08-29 18:36:00,
2013-08-29 11:41:00,80.1,45.8,29.96,SW,235,12.7,12.7,30,0.00,CLR,SCT,0.00,WeatherDisplay:10.37,2013-08-29 18:41:00,
2013-08-29 11:46:00,79.9,45.7,29.96,SW,235,12.7,12.7,30,0.00,CLR,SCT,0.00,WeatherDisplay:10.37,2013-08-29 18:46:00,
2013-08-29 11:51:00,79.3,45.2,29.96,SW,235,12.7,12.7,30,0.00,CLR,SCT,0.00,WeatherDisplay:10.37,2013-08-29 18:51:00,
2013-08-29 11:56:00,79.5,45.4,29.96,SW,235,12.7,12.7,30,0.00,CLR,SCT,0.00,WeatherDisplay:10.37,2013-08-29 18:56:00,
2013-08-29 12:01:00,79.9,45.7,29.96,SW,235,13.2,13.2,30,0.00,CLR,SCT,0.00,WeatherDisplay:10.37,2013-08-29 19:01:00,
2013-08-29 12:06:00,80.2,46.9,29.96,SW,235,13.2,13.2,31,0.00,CLR,SCT,0.00,WeatherDisplay:10.37,2013-08-29 19:06:00,
2013-08-29 12:11:00,80.8,46.4,29.96,SW,235,12.7,12.7,30,0.00,CLR,SCT,0.00,WeatherDisplay:10.37,2013-08-29 19:11:00,
2013-08-29 12:16:00,82.0,47.5,29.96,SW,235,12.7,12.7,30,0.00,CLR,SCT,0.00,WeatherDisplay:10.37,2013-08-29 19:16:00,
2013-08-29 12:21:00,83.3,48.6,29.96,SW,235,12.7,12.7,30,0.00,CLR,SCT,0.00,WeatherDisplay:10.37,2013-08-29 19:21:00,
2013-08-29 12:26:00,83.1,48.5,29.93,SW,235,12.7,12.7,30,0.00,CLR,SCT,0.00,WeatherDisplay:10.37,2013-08-29 19:26:00,
2013-08-29 12:31:00,82.2,47.7,29.93,SW,235,12.7,12.7,30,0.00,CLR,SCT,0.00,WeatherDisplay:10.37,2013-08-29 19:31:00,
2013-08-29 12:36:00,82.0,47.5,29.93,SW,235,12.7,12.7,30,0.00,CLR,SCT,0.00,WeatherDisplay:10.37,2013-08-29 19:36:00,
2013-08-29 12:41:00,81.7,47.2,29.96,SW,235,12.7,12.7,30,0.00,CLR,SCT,0.00,WeatherDisplay:10.37,2013-08-29 19:41:00,
2013-08-29 12:46:00,81.5,47.1,29.96,SW,235,12.7,12.7,30,0.00,CLR,SCT,0.00,WeatherDisplay:10.37,2013-08-29 19:46:00,
2013-08-29 12:51:00,81.9,47.4,29.96,SW,235,13.2,13.2,30,0.00,CLR,SCT,0.00,WeatherDisplay:10.37,2013-08-29 19:51:00,
2013-08-29 12:56:00,83.3,48.6,29.93,SW,235,12.7,12.7,30,0.00,CLR,SCT,0.00,WeatherDisplay:10.37,2013-08-29 19:56:00,
2013-08-29 13:01:00,84.6,48.8,29.93,SW,235,13.2,13.2,29,0.00,CLR,SCT,0.00,WeatherDisplay:10.37,2013-08-29 20:01:00,
2013-08-29 13:06:00,84.2,48.5,29.93,SW,235,13.2,13.2,29,0.00,CLR,SCT,0.00,WeatherDisplay:10.37,2013-08-29 20:06:00,
2013-08-29 13:11:00,84.0,49.2,29.96,SW,235,12.7,12.7,30,0.00,CLR,SCT,0.00,WeatherDisplay:10.37,2013-08-29 20:11:00,
2013-08-29 13:16:00,84.7,49.0,29.96,SW,235,12.7,12.7,29,0.00,CLR,SCT,0.00,WeatherDisplay:10.37,2013-08-29 20:16:00,
2013-08-29 13:21:00,85.3,49.4,29.96,SW,235,12.7,12.7,29,0.00,CLR,SCT,0.00,WeatherDisplay:10.37,2013-08-29 20:21:00,
2013-08-29 13:26:00,85.1,49.3,29.96,SW,235,12.7,12.7,29,0.00,CLR,SCT,0.00,WeatherDisplay:10.37,2013-08-29 20:26:00,
2013-08-29 13:31:00,84.2,48.5,29.96,SW,235,12.7,12.7,29,0.00,CLR,SCT,0.00,WeatherDisplay:10.37,2013-08-29 20:31:00,
2013-08-29 13:36:00,83.7,48.0,29.96,SW,235,12.7,12.7,29,0.00,CLR,SCT,0.00,WeatherDisplay:10.37,2013-08-29 20:36:00,
2013-08-29 13:41:00,84.6,48.8,29.96,SW,235,12.7,12.7,29,0.00,CLR,SCT,0.00,WeatherDisplay:10.37,2013-08-29 20:41:00,
2013-08-29 13:46:00,85.3,49.4,29.96,SW,235,12.7,12.7,29,0.00,CLR,SCT,0.00,WeatherDisplay:10.37,2013-08-29 20:46:00,
2013-08-29 13:51:00,85.1,49.3,29.96,SW,235,12.7,12.7,29,0.00,CLR,SCT,0.00,WeatherDisplay:10.37,2013-08-29 20:51:00,
2013-08-29 13:56:00,84.9,49.1,29.96,SW,235,13.2,13.2,29,0.00,CLR,SCT,0.00,WeatherDisplay:10.37,2013-08-29 20:56:00,
2013-08-29 14:01:00,84.2,48.5,29.96,SW,235,13.2,13.2,29,0.00,CLR,SCT,0.00,WeatherDisplay:10.37,2013-08-29 21:01:00,
2013-08-29 14:06:00,83.8,48.2,29.96,SW,235,12.7,12.7,29,0.00,CLR,SCT,0.00,WeatherDisplay:10.37,2013-08-29 21:06:00,
2013-08-29 14:11:00,84.2,48.5,29.96,SW,235,12.7,12.7,29,0.00,CLR,SCT,0.00,WeatherDisplay:10.37,2013-08-29 21:11:00,
2013-08-29 14:16:00,84.4,48.6,29.96,SW,235,12.7,12.7,29,0.00,CLR,SCT,0.00,WeatherDisplay:10.37,2013-08-29 21:16:00,
2013-08-29 14:21:00,84.7,49.0,29.96,SW,235,13.2,13.2,29,0.00,CLR,SCT,0.00,WeatherDisplay:10.37,2013-08-29 21:21:00,
2013-08-29 14:26:00,84.9,49.1,29.93,SW,235,12.7,12.7,29,0.00,CLR,SCT,0.00,WeatherDisplay:10.37,2013-08-29 21:26:00,
2013-08-29 14:31:00,84.4,48.6,29.93,SW,235,13.2,13.2,29,0.00,CLR,SCT,0.00,WeatherDisplay:10.37,2013-08-29 21:31:00,
2013-08-29 14:37:00,84.4,48.6,29.93,SW,235,12.7,12.7,29,0.00,CLR,SCT,0.00,WeatherDisplay:10.37,2013-08-29 21:37:00,
2013-08-29 14:42:00,85.1,49.3,29.96,SW,235,12.7,12.7,29,0.00,CLR,SCT,0.00,WeatherDisplay:10.37,2013-08-29 21:42:00,
2013-08-29 14:47:00,84.7,49.0,29.96,SW,235,13.2,13.2,29,0.00,CLR,SCT,0.00,WeatherDisplay:10.37,2013-08-29 21:47:00,
2013-08-29 14:52:00,84.6,48.8,29.96,SW,235,12.7,12.7,29,0.00,CLR,SCT,0.00,WeatherDisplay:10.37,2013-08-29 21:52:00,
2013-08-29 14:57:00,84.4,48.6,29.96,SW,235,12.7,12.7,29,0.00,CLR,SCT,0.00,WeatherDisplay:10.37,2013-08-29 21:57:00,
2013-08-29 15:02:00,84.7,49.0,29.96,SW,235,12.7,12.7,29,0.00,CLR,SCT,0.00,WeatherDisplay:10.37,2013-08-29 22:02:00,
2013-08-29 15:07:00,84.7,49.0,29.96,SW,235,12.7,12.7,29,0.00,CLR,SCT,0.00,WeatherDisplay:10.37,2013-08-29 22:07:00,
2013-08-29 15:12:00,84.4,48.6,29.96,SW,235,12.7,12.7,29,0.00,CLR,SCT,0.00,WeatherDisplay:10.37,2013-08-29 22:12:00,
2013-08-29 15:17:00,84.2,48.5,29.96,SW,235,12.7,12.7,29,0.00,CLR,SCT,0.00,WeatherDisplay:10.37,2013-08-29 22:17:00,
2013-08-29 15:22:00,84.2,48.5,29.96,SW,235,12.7,12.7,29,0.00,CLR,SCT,0.00,WeatherDisplay:10.37,2013-08-29 22:22:00,
2013-08-29 15:27:00,84.0,48.3,29.96,SW,235,12.7,12.7,29,0.00,CLR,SCT,0.00,WeatherDisplay:10.37,2013-08-29 22:27:00,
2013-08-29 15:32:00,83.8,48.2,29.96,SW,235,12.7,12.7,29,0.00,CLR,SCT,0.00,WeatherDisplay:10.37,2013-08-29 22:32:00,
2013-08-29 15:37:00,84.2,48.5,29.96,SW,235,12.7,12.7,29,0.00,CLR,SCT,0.00,WeatherDisplay:10.37,2013-08-29 22:37:00,
2013-08-29 15:42:00,84.7,49.0,29.96,SW,235,12.7,12.7,29,0.00,CLR,SCT,0.00,WeatherDisplay:10.37,2013-08-29 22:42:00,
2013-08-29 15:47:00,85.5,49.6,29.96,SW,235,13.2,13.2,29,0.00,CLR,SCT,0.00,WeatherDisplay:10.37,2013-08-29 22:47:00,
2013-08-29 15:52:00,85.6,49.7,29.96,SW,235,12.7,12.7,29,0.00,CLR,SCT,0.00,WeatherDisplay:10.37,2013-08-29 22:52:00,
2013-08-29 15:57:00,85.5,49.6,29.96,SW,235,13.2,13.2,29,0.00,CLR,SCT,0.00,WeatherDisplay:10.37,2013-08-29 22:57:00,
2013-08-29 16:02:00,84.9,49.1,29.96,SW,235,12.7,12.7,29,0.00,CLR,SCT,0.00,WeatherDisplay:10.37,2013-08-29 23:02:00,
2013-08-29 16:07:00,84.7,49.0,29.96,SW,235,12.7,12.7,29,0.00,CLR,SCT,0.00,WeatherDisplay:10.37,2013-08-29 23:07:00,
2013-08-29 16:12:00,85.1,49.3,29.96,SW,235,12.7,12.7,29,0.00,CLR,SCT,0.00,WeatherDisplay:10.37,2013-08-29 23:12:00,
2013-08-29 16:17:00,85.8,49.9,29.96,SW,235,12.7,12.7,29,0.00,CLR,SCT,0.00,WeatherDisplay:10.37,2013-08-29 23:17:00,
2013-08-29 16:22:00,86.0,50.0,29.96,SW,235,12.7,12.7,29,0.00,CLR,SCT,0.00,WeatherDisplay:10.37,2013-08-29 23:22:00,
2013-08-29 16:27:00,85.3,49.4,29.96,SW,235,12.7,12.7,29,0.00,CLR,SCT,0.00,WeatherDisplay:10.37,2013-08-29 23:27:00,
2013-08-29 16:32:00,84.6,48.8,29.96,SW,235,12.7,12.7,29,0.00,CLR,SCT,0.00,WeatherDisplay:10.37,2013-08-29 23:32:00,
2013-08-29 16:37:00,84.6,48.8,29.96,SW,235,12.7,12.7,29,0.00,CLR,SCT,0.00,WeatherDisplay:10.37,2013-08-29 23:37:00,
2013-08-29 16:42:00,84.2,48.5,29.96,SW,235,12.7,12.7,29,0.00,CLR,SCT,0.00,WeatherDisplay:10.37,2013-08-29 23:42:00,
2013-08-29 16:47:00,82.0,47.5,29.96,SW,235,13.2,13.2,30,0.00,CLR,SCT,0.00,WeatherDisplay:10.37,2013-08-29 23:47:00,
2013-08-29 16:52:00,80.8,46.4,29.96,SW,235,12.7,12.7,30,0.00,CLR,SCT,0.00,WeatherDisplay:10.37,2013-08-29 23:52:00,
2013-08-29 16:57:00,79.7,45.5,29.99,SW,235,12.7,12.7,30,0.00,CLR,SCT,0.00,WeatherDisplay:10.37,2013-08-29 23:57:00,
2013-08-29 17:02:00,78.4,45.3,29.99,SW,235,12.7,12.7,31,0.00,CLR,SCT,0.00,WeatherDisplay:10.37,2013-08-30 00:02:00,
2013-08-29 17:07:00,77.9,44.8,29.99,SW,235,13.2,13.2,31,0.00,CLR,SCT,0.00,WeatherDisplay:10.37,2013-08-30 00:07:00,
2013-08-29 17:12:00,77.5,44.5,29.99,SW,235,12.7,12.7,31,0.00,CLR,SCT,0.00,WeatherDisplay:10.37,2013-08-30 00:12:00,
2013-08-29 17:17:00,77.4,44.4,29.99,SW,235,13.2,13.2,31,0.00,CLR,SCT,0.00,WeatherDisplay:10.37,2013-08-30 00:17:00,
2013-08-29 17:22:00,76.6,44.6,29.99,SW,235,13.2,13.2,32,0.00,CLR,SCT,0.00,WeatherDisplay:10.37,2013-08-30 00:22:00,
2013-08-29 17:27:00,76.8,44.7,29.99,SW,235,12.7,12.7,32,0.00,CLR,SCT,0.00,WeatherDisplay:10.37,2013-08-30 00:27:00,
2013-08-29 17:32:00,77.2,45.0,29.99,SW,235,12.7,12.7,32,0.00,CLR,SCT,0.00,WeatherDisplay:10.37,2013-08-30 00:32:00,
2013-08-29 17:37:00,77.4,45.2,29.99,SW,235,12.7,12.7,32,0.00,CLR,SCT,0.00,WeatherDisplay:10.37,2013-08-30 00:37:00,
2013-08-29 17:42:00,77.0,44.9,29.99,SW,235,13.2,13.2,32,0.00,CLR,SCT,0.00,WeatherDisplay:10.37,2013-08-30 00:42:00,
2013-08-29 17:47:00,77.0,44.9,29.99,SW,235,13.2,13.2,32,0.00,CLR,SCT,0.00,WeatherDisplay:10.37,2013-08-30 00:47:00,
2013-08-29 17:52:00,77.2,45.0,29.99,SW,235,12.7,12.7,32,0.00,CLR,SCT,0.00,WeatherDisplay:10.37,2013-08-30 00:52:00,
2013-08-29 17:57:00,77.0,44.9,29.99,SW,235,12.7,12.7,32,0.00,CLR,SCT,0.00,WeatherDisplay:10.37,2013-08-30 00:57:00,
2013-08-29 18:02:00,76.8,44.7,29.99,SW,235,12.7,12.7,32,0.00,CLR,SCT,0.00,WeatherDisplay:10.37,2013-08-30 01:02:00,
2013-08-29 18:07:00,77.0,44.9,29.99,SW,235,12.7,12.7,32,0.00,CLR,SCT,0.00,WeatherDisplay:10.37,2013-08-30 01:07:00,
2013-08-29 18:12:00,77.2,45.0,29.99,SW,235,12.7,12.7,32,0.00,CLR,SCT,0.00,WeatherDisplay:10.37,2013-08-30 01:12:00,
2013-08-29 18:17:00,76.5,44.4,29.99,SW,235,12.7,12.7,32,0.00,CLR,SCT,0.00,WeatherDisplay:10.37,2013-08-30 01:17:00,
2013-08-29 18:22:00,76.1,44.1,29.99,SW,235,13.2,13.2,32,0.00,CLR,SCT,0.00,WeatherDisplay:10.37,2013-08-30 01:22:00,
2013-08-29 18:27:00,75.7,44.6,29.99,SW,235,12.7,12.7,33,0.00,CLR,SCT,0.00,WeatherDisplay:10.37,2013-08-30 01:27:00,
2013-08-29 18:32:00,75.7,43.8,29.99,SW,235,12.7,12.7,32,0.00,CLR,SCT,0.00,WeatherDisplay:10.37,2013-08-30 01:32:00,
2013-08-29 18:37:00,75.4,43.5,29.96,SW,235,12.7,12.7,32,0.00,CLR,SCT,0.00,WeatherDisplay:10.37,2013-08-30 01:37:00,
2013-08-29 18:42:00,74.8,43.8,29.96,SW,235,13.2,13.2,33,0.00,CLR,SCT,0.00,WeatherDisplay:10.37,2013-08-30 01:42:00,
2013-08-29 18:47:00,74.5,43.5,29.96,SW,235,13.2,13.2,33,0.00,CLR,SCT,0.00,WeatherDisplay:10.37,2013-08-30 01:47:00,
2013-08-29 18:52:00,74.1,43.2,29.96,SW,235,12.7,12.7,33,0.00,CLR,SCT,0.00,WeatherDisplay:10.37,2013-08-30 01:52:00,
2013-08-29 18:57:00,73.8,42.9,29.99,SW,235,12.7,12.7,33,0.00,CLR,SCT,0.00,WeatherDisplay:10.37,2013-08-30 01:57:00,
2013-08-29 19:02:00,73.6,42.7,29.99,SW,235,12.7,12.7,33,0.00,CLR,SCT,0.00,WeatherDisplay:10.37,2013-08-30 02:02:00,
2013-08-29 19:07:00,73.0,43.0,29.99,SW,235,13.2,13.2,34,0.00,CLR,SCT,0.00,WeatherDisplay:10.37,2013-08-30 02:07:00,
2013-08-29 19:12:00,72.7,42.7,29.99,SW,235,12.7,12.7,34,0.00,CLR,SCT,0.00,WeatherDisplay:10.37,2013-08-30 02:12:00,
2013-08-29 19:17:00,72.1,43.0,29.99,SW,235,12.7,12.7,35,0.00,CLR,SCT,0.00,WeatherDisplay:10.37,2013-08-30 02:17:00,
2013-08-29 19:22:00,72.0,42.8,29.99,SW,235,12.7,12.7,35,0.00,CLR,SCT,0.00,WeatherDisplay:10.37,2013-08-30 02:22:00,
2013-08-29 19:27:00,71.6,42.5,29.99,SW,235,12.7,12.7,35,0.00,CLR,SCT,0.00,WeatherDisplay:10.37,2013-08-30 02:27:00,
2013-08-29 19:32:00,71.2,42.9,29.99,SW,235,12.7,12.7,36,0.00,CLR,SCT,0.00,WeatherDisplay:10.37,2013-08-30 02:32:00,
2013-08-29 19:37:00,71.1,43.5,29.99,SW,235,13.2,13.2,37,0.00,CLR,SCT,0.00,WeatherDisplay:10.37,2013-08-30 02:37:00,
2013-08-29 19:42:00,70.7,43.1,29.99,SW,235,12.7,12.7,37,0.00,CLR,SCT,0.00,WeatherDisplay:10.37,2013-08-30 02:42:00,
2013-08-29 19:47:00,70.5,43.0,29.99,SW,235,12.7,12.7,37,0.00,CLR,SCT,0.00,WeatherDisplay:10.37,2013-08-30 02:47:00,
2013-08-29 19:52:00,70.2,43.4,30.02,SW,235,12.7,12.7,38,0.00,CLR,SCT,0.00,WeatherDisplay:10.37,2013-08-30 02:52:00,
2013-08-29 19:57:00,70.0,43.2,30.02,SW,235,12.7,12.7,38,0.00,CLR,SCT,0.00,WeatherDisplay:10.37,2013-08-30 02:57:00,
2013-08-29 20:02:00,69.8,43.0,30.02,SW,235,12.7,12.7,38,0.00,CLR,SCT,0.00,WeatherDisplay:10.37,2013-08-30 03:02:00,
2013-08-29 20:07:00,69.4,43.4,30.02,SW,235,12.7,12.7,39,0.00,CLR,SCT,0.00,WeatherDisplay:10.37,2013-08-30 03:07:00,
2013-08-29 20:12:00,69.3,43.9,30.02,SW,235,12.7,12.7,40,0.00,CLR,SCT,0.00,WeatherDisplay:10.37,2013-08-30 03:12:00,
2013-08-29 20:17:00,68.9,43.6,30.02,SW,235,13.2,13.2,40,0.00,CLR,SCT,0.00,WeatherDisplay:10.37,2013-08-30 03:17:00,
2013-08-29 20:22:00,68.7,43.4,30.02,SW,235,12.7,12.7,40,0.00,CLR,SCT,0.00,WeatherDisplay:10.37,2013-08-30 03:22:00,
2013-08-29 20:27:00,68.5,43.9,30.02,SW,235,12.7,12.7,41,0.00,CLR,SCT,0.00,WeatherDisplay:10.37,2013-08-30 03:27:00,
2013-08-29 20:32:00,68.4,43.7,30.02,SW,235,12.7,12.7,41,0.00,CLR,SCT,0.00,WeatherDisplay:10.37,2013-08-30 03:32:00,
2013-08-29 20:37:00,68.4,43.7,30.02,SW,235,13.2,13.2,41,0.00,CLR,SCT,0.00,WeatherDisplay:10.37,2013-08-30 03:37:00,
2013-08-29 20:42:00,68.4,43.7,30.02,SW,235,12.7,12.7,41,0.00,CLR,SCT,0.00,WeatherDisplay:10.37,2013-08-30 03:42:00,
2013-08-29 20:47:00,68.2,43.6,30.02,SW,235,12.7,12.7,41,0.00,CLR,SCT,0.00,WeatherDisplay:10.37,2013-08-30 03:47:00,
2013-08-29 20:52:00,68.0,43.4,30.02,SW,235,12.7,12.7,41,0.00,CLR,SCT,0.00,WeatherDisplay:10.37,2013-08-30 03:52:00,
2013-08-29 20:57:00,67.8,43.9,30.02,SW,235,12.7,12.7,42,0.00,CLR,SCT,0.00,WeatherDisplay:10.37,2013-08-30 03:57:00,
2013-08-29 21:01:00,67.6,43.7,30.02,SW,235,12.7,12.7,42,0.00,CLR,SCT,0.00,WeatherDisplay:10.37,2013-08-30 04:01:00,
2013-08-29 21:02:00,67.6,44.3,30.02,SW,235,12.7,12.7,43,0.00,CLR,SCT,0.00,WeatherDisplay:10.37,2013-08-30 04:02:00,
2013-08-29 21:07:00,67.3,44.0,30.02,SW,235,6.0,13.0,43,0.00,CLR,SCT,0.00,WeatherDisplay:10.37,2013-08-30 04:07:00,
2013-08-29 21:11:00,66.9,43.7,30.05,SW,235,12.7,12.7,43,0.00,CLR,SCT,0.00,WeatherDisplay:10.37,2013-08-30 04:11:00,
2013-08-29 21:17:00,66.6,43.4,30.05,SW,235,12.7,12.7,43,0.00,CLR,SCT,0.00,WeatherDisplay:10.37,2013-08-30 04:17:00,
2013-08-29 21:22:00,66.4,43.8,30.05,SW,235,12.7,12.7,44,0.00,CLR,SCT,0.00,WeatherDisplay:10.37,2013-08-30 04:22:00,
2013-08-29 21:27:00,66.2,43.6,30.05,SW,235,12.7,12.7,44,0.00,CLR,SCT,0.00,WeatherDisplay:10.37,2013-08-30 04:27:00,
2013-08-29 21:32:00,66.0,44.1,30.05,SW,235,13.2,13.2,45,0.00,CLR,SCT,0.00,WeatherDisplay:10.37,2013-08-30 04:32:00,
2013-08-29 21:37:00,65.8,43.9,30.05,SW,235,12.7,12.7,45,0.00,CLR,SCT,0.00,WeatherDisplay:10.37,2013-08-30 04:37:00,
2013-08-29 21:42:00,65.7,43.7,30.05,SW,235,12.7,12.7,45,0.00,CLR,SCT,0.00,WeatherDisplay:10.37,2013-08-30 04:42:00,
2013-08-29 21:47:00,65.5,44.1,30.05,SW,235,12.7,12.7,46,0.00,CLR,SCT,0.00,WeatherDisplay:10.37,2013-08-30 04:47:00,
2013-08-29 21:52:00,65.3,44.0,30.05,SW,235,13.2,13.2,46,0.00,CLR,SCT,0.00,WeatherDisplay:10.37,2013-08-30 04:52:00,
2013-08-29 21:57:00,65.1,43.8,30.05,SW,235,13.2,13.2,46,0.00,CLR,SCT,0.00,WeatherDisplay:10.37,2013-08-30 04:57:00,
2013-08-29 22:02:00,64.8,43.5,30.05,SW,235,12.7,12.7,46,0.00,CLR,SCT,0.00,WeatherDisplay:10.37,2013-08-30 05:02:00,
2013-08-29 22:07:00,64.6,43.3,30.05,SW,235,12.7,12.7,46,0.00,CLR,SCT,0.00,WeatherDisplay:10.37,2013-08-30 05:07:00,
2013-08-29 22:12:00,64.4,43.7,30.05,SW,235,12.7,12.7,47,0.00,CLR,SCT,0.00,WeatherDisplay:10.37,2013-08-30 05:12:00,
2013-08-29 22:17:00,64.2,43.6,30.05,SW,235,12.7,12.7,47,0.00,CLR,SCT,0.00,WeatherDisplay:10.37,2013-08-30 05:17:00,
2013-08-29 22:22:00,64.2,44.1,30.05,SW,235,12.7,12.7,48,0.00,CLR,SCT,0.00,WeatherDisplay:10.37,2013-08-30 05:22:00,
2013-08-29 22:27:00,64.2,44.1,30.05,SW,235,12.7,12.7,48,0.00,CLR,SCT,0.00,WeatherDisplay:10.37,2013-08-30 05:27:00,
2013-08-29 22:32:00,64.2,44.1,30.05,SW,235,12.7,12.7,48,0.00,CLR,SCT,0.00,WeatherDisplay:10.37,2013-08-30 05:32:00,
2013-08-29 22:37:00,63.9,43.8,30.05,SW,235,12.7,12.7,48,0.00,CLR,SCT,0.00,WeatherDisplay:10.37,2013-08-30 05:37:00,
2013-08-29 22:42:00,63.3,43.3,30.05,SW,235,12.7,12.7,48,0.00,CLR,SCT,0.00,WeatherDisplay:10.37,2013-08-30 05:42:00,
2013-08-29 22:47:00,62.8,43.9,30.05,SW,235,12.7,12.7,50,0.00,CLR,SCT,0.00,WeatherDisplay:10.37,2013-08-30 05:47:00,
2013-08-29 22:52:00,62.2,44.9,30.05,SW,235,12.7,12.7,53,0.00,CLR,SCT,0.00,WeatherDisplay:10.37,2013-08-30 05:52:00,
2013-08-29 22:57:00,62.2,44.4,30.05,SW,235,12.7,12.7,52,0.00,CLR,SCT,0.00,WeatherDisplay:10.37,2013-08-30 05:57:00,
2013-08-29 23:02:00,62.4,44.6,30.05,SW,235,12.7,12.7,52,0.00,CLR,SCT,0.00,WeatherDisplay:10.37,2013-08-30 06:02:00,
2013-08-29 23:07:00,62.2,44.9,30.05,SW,235,12.7,12.7,53,0.00,CLR,SCT,0.00,WeatherDisplay:10.37,2013-08-30 06:07:00,
2013-08-29 23:12:00,61.9,45.0,30.05,SW,235,13.2,13.2,54,0.00,CLR,SCT,0.00,WeatherDisplay:10.37,2013-08-30 06:12:00,
2013-08-29 23:17:00,61.3,44.5,30.05,SW,235,12.7,12.7,54,0.00,CLR,SCT,0.00,WeatherDisplay:10.37,2013-08-30 06:17:00,
2013-08-29 23:22:00,61.2,44.4,30.05,SW,235,12.7,12.7,54,0.00,CLR,SCT,0.00,WeatherDisplay:10.37,2013-08-30 06:22:00,
2013-08-29 23:27:00,60.6,44.8,30.05,SW,235,12.7,12.7,56,0.00,CLR,SCT,0.00,WeatherDisplay:10.37,2013-08-30 06:27:00,
2013-08-29 23:32:00,60.3,45.0,30.05,SW,235,12.7,12.7,57,0.00,CLR,SCT,0.00,WeatherDisplay:10.37,2013-08-30 06:32:00,
2013-08-29 23:37:00,60.1,44.8,30.05,SW,235,12.7,12.7,57,0.00,CLR,SCT,0.00,WeatherDisplay:10.37,2013-08-30 06:37:00,
2013-08-29 23:42:00,60.1,45.2,30.05,SW,235,12.7,12.7,58,0.00,CLR,SCT,0.00,WeatherDisplay:10.37,2013-08-30 06:42:00,
2013-08-29 23:47:00,59.9,45.1,30.05,SW,235,12.7,12.7,58,0.00,CLR,SCT,0.00,WeatherDisplay:10.37,2013-08-30 06:47:00,
2013-08-29 23:52:00,59.7,44.9,30.05,SW,235,13.2,13.2,58,0.00,CLR,SCT,0.00,WeatherDisplay:10.37,2013-08-30 06:52:00,
2013-08-29 23:57:00,59.2,45.3,30.05,SW,235,12.7,12.7,60,0.00,CLR,SCT,0.00,WeatherDisplay:10.37,2013-08-30 06:57:00,